Location: Le Rouget
(44.8538°N, 2.2328°E)
Time: 20:31:54
(UTC+00:00)

Meteor 1-10 Rocket - Pass Details

Date: 15 May 2026
Orbit: 834 x 909 km, 81.3° (Epoch: 8 June)

Event Time Altitude Azimuth Distance (km) Brightness Sun altitude
Exits shadow 23:11:31 64° 146° (SE) 996 4.2 -25.6°
Maximum altitude 23:12:15 73° 97° (E) 950 4.3 -25.6°
Drops below altitude 10° 23:18:11 10° 14° (NNE) 2,604 7.6 -25.7°
Sets 23:20:40 0° 13° (NNE) 3,550 8.6 -25.8°
